When you browse on this site, cookies collect data to enhance your experience and personalize the content and advertising you see.
Visit our Privacy Policy to learn more. By continuing to use the site, you agree to this use of cookies and data.
  • In Lithuania
  • List of Countries
  • For 7 days
  • Water Temperature
  • Satellite Maps
  • Weather Map
  • Weather Widgets
  • user-avatar
    Login

    Hourly Weather Malye Yagury

    Today, 23 February, Saturday

    Time Temperature Precipitation Wind Pressure Humidity
    00:00 +3°C° 0.1 mm 3 mps 749 mmHg 74%
    01:00 +3°C° 0 mm 3 mps 749 mmHg 75%
    02:00 +2°C° 0 mm 3 mps 750 mmHg 75%
    03:00 +2°C° 0 mm 3 mps 750 mmHg 76%
    04:00 +2°C° 0 mm 3 mps 750 mmHg 76%
    05:00 +2°C° 0 mm 3 mps 750 mmHg 77%
    06:00 +1°C° 0 mm 3 mps 751 mmHg 77%
    07:00 +2°C° 0 mm 3 mps 751 mmHg 77%
    08:00 +1°C° 0 mm 4 mps 751 mmHg 76%
    09:00 +3°C° 0 mm 4 mps 751 mmHg 76%
    10:00 +3°C° 0 mm 5 mps 752 mmHg 73%
    11:00 +5°C° 0 mm 5 mps 752 mmHg 70%
    12:00 +6°C° 0 mm 5 mps 752 mmHg 68%
    13:00 +6°C° 0 mm 4 mps 752 mmHg 67%
    14:00 +6°C° 0 mm 4 mps 752 mmHg 67%
    15:00 +7°C° 0 mm 3 mps 752 mmHg 67%
    16:00 +7°C° 0.1 mm 3 mps 752 mmHg 69%
    17:00 +7°C° 0.1 mm 2 mps 752 mmHg 72%
    18:00 +7°C° 0.1 mm 1 mps 753 mmHg 75%
    19:00 +7°C° 0.1 mm 1 mps 753 mmHg 77%
    20:00 +7°C° 0.1 mm 1 mps 753 mmHg 79%
    21:00 +7°C° 0.1 mm 1 mps 754 mmHg 80%
    22:00 +6°C° 0 mm 1 mps 754 mmHg 82%
    23:00 +5°C° 0 mm 2 mps 754 mmHg 84%

    Tomorrow, 24 February, Sunday

    Time Temperature Precipitation Wind Pressure Humidity
    00:00 +4°C° 0 mm 2 mps 754 mmHg 85%
    01:00 +5°C° 0 mm 1 mps 754 mmHg 86%
    02:00 +4°C° 0 mm 1 mps 754 mmHg 86%
    03:00 +4°C° 0 mm 1 mps 754 mmHg 86%
    04:00 +4°C° 0 mm 1 mps 754 mmHg 88%
    05:00 +3°C° 0 mm 1 mps 754 mmHg 90%
    06:00 +1°C° 0 mm 2 mps 754 mmHg 92%
    07:00 +2°C° 0 mm 2 mps 755 mmHg 90%
    08:00 +2°C° 0 mm 2 mps 755 mmHg 89%
    09:00 +1°C° 0 mm 3 mps 755 mmHg 87%
    10:00 +1°C° 0.1 mm 3 mps 755 mmHg 85%
    11:00 +2°C° 0.1 mm 3 mps 755 mmHg 83%
    12:00 +2°C° 0.1 mm 3 mps 755 mmHg 81%
    13:00 +2°C° 0.3 mm 3 mps 755 mmHg 81%
    14:00 +1°C° 0.3 mm 3 mps 755 mmHg 82%
    15:00 +1°C° 0.3 mm 3 mps 755 mmHg 82%
    16:00 +1°C° 0.1 mm 3 mps 756 mmHg 83%
    17:00 +1°C° 0.1 mm 3 mps 756 mmHg 83%
    18:00 0°C° 0.1 mm 3 mps 756 mmHg 84%
    19:00 0°C° 0 mm 3 mps 756 mmHg 85%
    20:00 0°C° 0 mm 3 mps 757 mmHg 85%
    21:00 -1°C° 0 mm 3 mps 757 mmHg 86%
    22:00 -1°C° 0 mm 3 mps 757 mmHg 86%
    23:00 -2°C° 0 mm 3 mps 757 mmHg 87%

    Day after tomorrow, 25 February, Monday

    Time Temperature Precipitation Wind Pressure Humidity
    00:00 -2°C° 0 mm 3 mps 757 mmHg 87%
    01:00 -4°C° 0 mm 3 mps 757 mmHg 86%
    02:00 -4°C° 0 mm 3 mps 757 mmHg 85%
    03:00 -4°C° 0 mm 4 mps 757 mmHg 84%
    04:00 -4°C° 0 mm 4 mps 756 mmHg 83%
    05:00 -5°C° 0 mm 4 mps 756 mmHg 82%
    06:00 -5°C° 0 mm 4 mps 756 mmHg 81%
    07:00 -4°C° 0 mm 4 mps 756 mmHg 77%
    08:00 -4°C° 0 mm 4 mps 756 mmHg 74%
    09:00 -5°C° 0 mm 5 mps 756 mmHg 71%
    10:00 -4°C° 0 mm 5 mps 756 mmHg 62%
    11:00 -2°C° 0 mm 6 mps 755 mmHg 53%
    12:00 -1°C° 0 mm 6 mps 754 mmHg 44%
    13:00 +1°C° 0 mm 6 mps 754 mmHg 45%
    14:00 0°C° 0 mm 7 mps 753 mmHg 46%
    15:00 +2°C° 0 mm 7 mps 752 mmHg 47%
    16:00 +1°C° 0 mm 6 mps 752 mmHg 52%
    17:00 0°C° 0 mm 5 mps 752 mmHg 58%
    18:00 -1°C° 0 mm 5 mps 751 mmHg 64%
    19:00 -1°C° 0 mm 5 mps 751 mmHg 66%
    20:00 -1°C° 0 mm 5 mps 750 mmHg 69%
    21:00 -2°C° 0 mm 6 mps 750 mmHg 71%
    22:00 -3°C° 0 mm 6 mps 749 mmHg 72%
    23:00 -3°C° 0 mm 7 mps 749 mmHg 74%

    26 February, Tuesday

    Time Temperature Precipitation Wind Pressure Humidity
    00:00 -3°C° 0 mm 7 mps 748 mmHg 75%
    01:00 -3°C° 0 mm 7 mps 747 mmHg 75%
    02:00 -4°C° 0 mm 8 mps 746 mmHg 74%
    03:00 -4°C° 0 mm 8 mps 746 mmHg 74%
    04:00 -4°C° 0 mm 9 mps 745 mmHg 74%
    05:00 -3°C° 0 mm 9 mps 744 mmHg 74%
    06:00 -3°C° 0 mm 10 mps 744 mmHg 74%
    07:00 -3°C° 0.3 mm 10 mps 743 mmHg 75%
    08:00 -3°C° 0.3 mm 10 mps 743 mmHg 76%
    09:00 -2°C° 0.3 mm 11 mps 743 mmHg 76%
    10:00 -2°C° 0.2 mm 10 mps 742 mmHg 74%
    11:00 -2°C° 0.2 mm 10 mps 742 mmHg 71%
    12:00 -2°C° 0.2 mm 10 mps 742 mmHg 69%
    13:00 -2°C° 0.1 mm 10 mps 741 mmHg 67%
    14:00 -1°C° 0.1 mm 9 mps 741 mmHg 66%
    15:00 0°C° 0.1 mm 9 mps 740 mmHg 64%
    16:00 -1°C° 0 mm 8 mps 740 mmHg 67%
    17:00 -1°C° 0 mm 7 mps 740 mmHg 70%
    18:00 -2°C° 0 mm 6 mps 739 mmHg 73%
    19:00 -2°C° 0 mm 6 mps 739 mmHg 76%
    20:00 -2°C° 0 mm 6 mps 739 mmHg 79%
    21:00 -3°C° 0 mm 6 mps 739 mmHg 81%
    22:00 -3°C° 0 mm 6 mps 739 mmHg 82%
    23:00 -3°C° 0 mm 6 mps 738 mmHg 82%

    27 February, Wednesday

    Time Temperature Precipitation Wind Pressure Humidity
    00:00 -4°C° 0 mm 5 mps 738 mmHg 82%
    01:00 -4°C° 0 mm 5 mps 737 mmHg 83%
    02:00 -3°C° 0 mm 4 mps 737 mmHg 84%
    03:00 -3°C° 0 mm 4 mps 737 mmHg 84%
    04:00 -2°C° 0.1 mm 3 mps 736 mmHg 86%
    05:00 -2°C° 0.1 mm 2 mps 736 mmHg 88%
    06:00 0°C° 0.1 mm 1 mps 736 mmHg 90%
    07:00 -1°C° 0.1 mm 2 mps 736 mmHg 88%
    08:00 -1°C° 0.1 mm 2 mps 736 mmHg 86%
    09:00 +1°C° 0.1 mm 2 mps 736 mmHg 84%
    10:00 +1°C° 0.1 mm 2 mps 736 mmHg 81%
    11:00 +2°C° 0.1 mm 2 mps 737 mmHg 77%
    12:00 +3°C° 0.1 mm 2 mps 737 mmHg 74%
    13:00 +4°C° 0.1 mm 1 mps 737 mmHg 72%
    14:00 +4°C° 0.1 mm 1 mps 737 mmHg 70%
    15:00 +5°C° 0.1 mm 1 mps 737 mmHg 69%
    16:00 +4°C° 0 mm 1 mps 737 mmHg 73%
    17:00 +3°C° 0 mm 1 mps 737 mmHg 77%
    18:00 +2°C° 0 mm 2 mps 737 mmHg 81%
    19:00 +2°C° 0 mm 2 mps 738 mmHg 83%
    20:00 0°C° 0 mm 3 mps 738 mmHg 86%
    21:00 0°C° 0 mm 3 mps 739 mmHg 88%
    22:00 0°C° 0.1 mm 3 mps 739 mmHg 88%
    23:00 -1°C° 0.1 mm 3 mps 740 mmHg 89%

    28 February, Thursday

    Time Temperature Precipitation Wind Pressure Humidity
    00:00 -1°C° 0.1 mm 3 mps 740 mmHg 89%
    01:00 -2°C° 0 mm 2 mps 740 mmHg 90%
    02:00 -2°C° 0 mm 2 mps 740 mmHg 91%
    03:00 -3°C° 0 mm 2 mps 741 mmHg 92%
    04:00 -4°C° 0 mm 3 mps 741 mmHg 92%
    05:00 -4°C° 0 mm 3 mps 741 mmHg 93%
    06:00 -5°C° 0 mm 3 mps 742 mmHg 93%
    07:00 -4°C° 0 mm 4 mps 742 mmHg 88%
    08:00 -4°C° 0 mm 5 mps 742 mmHg 83%
    09:00 -2°C° 0 mm 5 mps 742 mmHg 77%
    10:00 -2°C° 0 mm 6 mps 742 mmHg 74%
    11:00 -2°C° 0 mm 6 mps 742 mmHg 70%
    12:00 -1°C° 0 mm 6 mps 741 mmHg 67%
    13:00 -1°C° 0 mm 7 mps 741 mmHg 66%
    14:00 0°C° 0 mm 7 mps 740 mmHg 65%
    15:00 0°C° 0 mm 7 mps 740 mmHg 63%
    16:00 -1°C° 0 mm 7 mps 740 mmHg 67%
    17:00 -2°C° 0 mm 6 mps 740 mmHg 71%
    18:00 -2°C° 0 mm 6 mps 740 mmHg 74%
    19:00 -2°C° 0 mm 6 mps 740 mmHg 75%
    20:00 -2°C° 0 mm 7 mps 740 mmHg 76%
    21:00 -3°C° 0 mm 7 mps 740 mmHg 77%
    22:00 -2°C° 0 mm 7 mps 739 mmHg 75%
    23:00 -2°C° 0 mm 8 mps 739 mmHg 73%
    Show more